STARLINK-11533, 62836

Orbit data source: Space-Track

STARLINK-11533, 62836 is a payload satellite owned by SpaceX/Seattle (US) in LEO that was launched on Mon, 27 Jan 2025 UTC via an FALCON 9 launch vehicle from the Air Force Eastern Test Range (AFETR). Payload-class satellites include a variety of spacecraft equipped with specific instruments for various scientific and technological missions. These include communications satellites like Starlink; space stations such as the ISS; scientific satellites like the Hubble; Earth observation satellites from companies like Planet Labs, Umbra, and HawkEye 360; GPS; miniature CubeSats for education and research; and military/defense satellites.

Loading next visibility...
Identifier
62836, 2025-019H
Orbit
LEO
Last TLE update
10 hours ago
Origin
Manufacturer
SpaceX/Seattle
Mission
Operational Commercial Communications
Bus & Motor
STARLINK V2M, Unknown motor
Mass
730 kg wet, ~700 kg dry
Launch date (UTC)
2025-01-27 (5 months ago)
Launch vehicle
FALCON 9
Launch site
Air Force Eastern Test Range (AFETR)
Object type
Payload
Rocket body
Debris
Shape & HBR
Box + 2 Pan, 29 m
Radar Cross Section
36.964 m², Large (>1 m²)

Expand to show TLE details & history

TLE from 10 hours ago
0 STARLINK-11533
1 62836U 25019H   25183.89571178  .00146455  00000-0  11226-2 0  9996
2 62836  42.9995  11.7488 0002781 263.2996  96.7555 15.70885554 25539
Epoch: 2025-07-02T21:29Z
TLE epoch observation values (Epoch: 2025-07-02T21:29:49.497Z)
Latitude
-0.00005°
Longitude
128.12227°
Altitude
356.357 km
Speed
7.697 km/s
True Right ascension
00h 46m 59s
True Declination
0° 00' 00"
Sunlit
Object was in daylight at epoch
Visualization orbit readout
Latitude
6.0312°
Longitude
-60.82988°
Altitude
355.377 km
Speed
7.698 km/s
Apparent Right ascension
10h 07m 18s
Apparent Declination
-20° 03' 32"
Sunlit
Object is in daylight
Visualization observer readout
Local Sidereal Time
19:08:28
Azimuth
284.047° WNW
Elevation
-47.066°
Doppler factor
1
Orbital elements
Apogee altitude
360.22 km
Perigee altitude
356.473 km
Semi-major axis
6,736.484 km
Eccentricity
0.00028
Inclination
42.9995°
RAAN
11.7488°
Arg. of periapsis
263.2996°
True anomaly
Unknown
Mean anomaly
96.7555°
Eccentric anomaly
Unknown
Mean motion
3.92548 °/min
Orbital period
91.71 mins
BSTAR
0.0011226
Loading maneuver chart data...
Loading SW <> Apogee altitude chart data...
Loading historical data...
Loading historical data...
Loading historical data...
Loading historical data...
Loading historical data...
Loading historical data...
Loading historical data...

STARLINK-11533 Visibility forecast

Observer location: undefined°, undefined°

Span
Click to sort rows by Start time (UTC) header in descending order
Start Az.
Max El. time (UTC)
Max El. Az.
Max El.
End time (UTC)
End Az.
5 mins2025-07-03 16:01:39.054Z219.718° SW2025-07-03 16:03:39.054Z167.901° S31.438°2025-07-03 16:06:39.054Z82.707° E
4 mins2025-07-03 17:38:39.054Z282.966° WNW2025-07-03 17:39:39.054Z321.495° NNW37.729°2025-07-03 17:42:39.054Z67.972° E
4 mins2025-07-03 19:14:39.054Z300.6° NW2025-07-03 19:16:39.054Z33.862° NE34.814°2025-07-03 19:18:39.054Z80.453° E
4 mins2025-07-03 20:50:39.054Z276.365° WNW2025-07-03 20:52:39.054Z180.837° SSW38.707°2025-07-03 20:54:39.054Z127.718° SE
|